Regional Weather Roundup
Issued by NWS

Current Version | Previous Version | Text Only | Print | Product List | Glossary On
Versions: 1 2 3 4 5 6 7 8 9 10 11 12 13 14 15 16 17 18 19 20 21 22 23 24 25 26 27 28 29 30 31 32 33 34 35 36 37 38 39 40 41 42 43 44 45 46 47 48 49 50
000
ASUS45 KSLC 191510
RWRUT

UTAH REGIONAL WEATHER ROUNDUP
NATIONAL WEATHER SERVICE SALT LAKE CITY UT
900 AM MDT MON APR 19 2021

UTZ001>011-023>025-191600-

NORTHERN UTAH

CITY           SKY/WX    TMP DP  RH WIND       PRES   REMARKS
BRIGHAM CITY   SUNNY     52  21  29 S9        29.99S
DUGWAY         MOSUNNY   50  19  28 E2        30.03S
HILL AFB       NOT AVBL
LOGAN          MOSUNNY   46  28  49 NE6       29.96F
OGDEN          SUNNY     51  25  36 S7        29.99S
SALT LAKE CITY MOSUNNY   54  26  34 SE6       29.99S
TOOELE VALLEY  SUNNY     57  28  33 S12       30.00R
WENDOVER       SUNNY     62  15  16 NW9       30.02S
HEBER CITY       N/A     34  27  75 CALM      30.02F
WEST JORDAN    SUNNY     52  31  44 S16G24    30.01S

$$

UTZ011>015-024>027-191600-

CENTRAL/NORTHEAST UTAH

CITY           SKY/WX    TMP DP  RH WIND       PRES   REMARKS
PROVO AIRPORT  SUNNY     48  28  46 CALM      30.05F
MOAB/CANYONLAN SUNNY     50  24  36 E3        30.02F
MANTI            N/A     34  23  63 CALM      30.10F
PRICE          SUNNY     48  18  30 CALM      30.05F
RICHFIELD      SUNNY     52  19  28 S14       30.08F
ROOSEVELT      SUNNY     43  27  52 CALM      30.02F
VERNAL         SUNNY     44  20  38 VRB3      30.01F

$$

UTZ013>016-019>022-027-191600-

SOUTHERN UTAH

CITY           SKY/WX    TMP DP  RH WIND       PRES   REMARKS
BRYCE CANYON   SUNNY     45  16  31 W10       30.17F
CEDAR CITY     SUNNY     41  14  33 CALM      30.13F
MILFORD        SUNNY     47  15  27 SW20      30.09F
ST GEORGE      MOSUNNY   54  12  18 S5        30.12R
HANKSVILLE     SUNNY     45   9  23 MISG      30.08F
KANAB          SUNNY     46  12  25 CALM      30.19F
BLANDING         N/A     45  12  25 SE5       30.19F

$$

REGIONAL REPORTS     COLORADO/ARIZONA

CITY           SKY/WX    TMP DP  RH WIND       PRES   REMARKS
CRAIG, CO      SUNNY     42  26  53 CALM      29.99F
GRAND JUNCTION SUNNY     47  21  35 SE9       30.04F
RIFLE, CO      SUNNY     41  23  48 CALM      30.06F
MONTROSE, CO   SUNNY     47  22  37 NW5       30.08F
CORTEZ, CO     SUNNY     41  17  38 CALM      30.14F
COLORADO CITY    N/A     50  19  29 CALM      30.17S
PAGE, AZ       SUNNY     53   5  14 E5        30.11S
GRAND CANYON   SUNNY     44  10  25 CALM      30.20R
KINGMAN, AZ    SUNNY     55   6  14 CALM      30.11R
FLAGSTAFF, AZ  SUNNY     45  20  36 CALM      30.19R

$$

REGIONAL REPORTS    NEVADA/IDAHO/WYOMING

CITY           SKY/WX    TMP DP  RH WIND       PRES   REMARKS
LAS VEGAS, NV  SUNNY     64  11  12 CALM      30.06R
ELY, NY        SUNNY     41  15  35 S10       30.15F
ELKO, NV       SUNNY     42  16  34 W3        30.10F
POCATELLO, ID  SUNNY     43  27  53 SW3       29.96F
BURLEY, ID     SUNNY     52  29  41 W20G32    29.94F
EVANSTON, WY   MOSUNNY   45  17  32 SW21G26   30.00F
ROCK SPRINGS,  MOSUNNY   39  24  55 NE12      29.97F WCI  32
KEMMERER, WY   MOSUNNY   43  18  36 W16G24    29.96F

$$



USA.gov is the U.S. government's official web portal to all federal, state and local government web resources and services.